ANA8475 RJAA-RKSI

Flight info

Callsign ANA8475
Flight time N/A
Altitude 40000
Route ENPAR Y16 SAPRA Y685 GUKDO GUKDO3C
Aircraft B77L/H-SDE1E2E3FGHIJ2J3J4J5M1RWXY/LB1D1

Departure

Time 2026-05-06 11:24
Airport Narita International Airport (RJAA)

Arrival

Time N/A
Airport Incheon International Airport (RKSI)
Time Latitude Longitude Altitude Speed Heading
2026-05-06 11:05 35.77290 140.37463 148 ft 0 kts 58°
2026-05-06 11:17 35.77285 140.37452 148 ft 2 kts 58°
2026-05-06 11:17 35.77276 140.37435 120 ft 2 kts 60°
2026-05-06 11:18 35.77268 140.37417 120 ft 2 kts 63°
2026-05-06 11:18 35.77261 140.37399 148 ft 2 kts 66°
2026-05-06 11:18 35.77255 140.37380 148 ft 2 kts 75°
2026-05-06 11:18 35.77253 140.37360 152 ft 2 kts 104°
2026-05-06 11:19 35.77260 140.37343 148 ft 1 kts 146°
2026-05-06 11:19 35.77264 140.37341 148 ft 0 kts 148°
2026-05-06 11:20 35.77247 140.37354 148 ft 7 kts 148°
2026-05-06 11:21 35.77182 140.37398 148 ft 12 kts 153°
2026-05-06 11:21 35.77103 140.37442 148 ft 12 kts 178°
2026-05-06 11:21 35.77070 140.37366 148 ft 12 kts 301°
2026-05-06 11:21 35.77144 140.37299 147 ft 14 kts 327°
2026-05-06 11:22 35.77231 140.37233 147 ft 15 kts 329°
2026-05-06 11:22 35.77327 140.37166 147 ft 16 kts 330°
2026-05-06 11:22 35.77430 140.37096 147 ft 17 kts 330°
2026-05-06 11:22 35.77493 140.36992 148 ft 14 kts 261°
2026-05-06 11:23 35.77463 140.36919 148 ft 0 kts 237°
2026-05-06 11:23 35.77450 140.36898 148 ft 7 kts 229°
2026-05-06 11:23 35.77385 140.36877 147 ft 15 kts 167°
2026-05-06 11:23 35.77251 140.36968 146 ft 38 kts 149°
2026-05-06 11:24 35.76827 140.37271 148 ft 112 kts 149°
2026-05-06 11:24 35.75935 140.37921 224 ft 176 kts 149°
2026-05-06 11:24 35.74929 140.38656 1313 ft 152 kts 153°
2026-05-06 11:24 35.74002 140.39288 2420 ft 148 kts 153°
2026-05-06 11:25 35.73082 140.39942 3162 ft 169 kts 153°
2026-05-06 11:25 35.71952 140.40746 3494 ft 206 kts 153°
2026-05-06 11:25 35.70606 140.41708 3862 ft 239 kts 152°
2026-05-06 11:25 35.69121 140.42779 4705 ft 254 kts 152°
2026-05-06 11:26 35.67564 140.43907 5634 ft 265 kts 151°
2026-05-06 11:26 35.65943 140.45084 6659 ft 274 kts 151°
2026-05-06 11:26 35.64289 140.46284 7668 ft 280 kts 152°
2026-05-06 11:26 35.62595 140.47513 8693 ft 286 kts 152°
2026-05-06 11:27 35.60863 140.48766 9713 ft 292 kts 153°
2026-05-06 11:27 35.59090 140.50046 10584 ft 302 kts 153°
2026-05-06 11:27 35.57180 140.51346 10913 ft 325 kts 161°
2026-05-06 11:27 35.54894 140.51951 11140 ft 350 kts 181°
2026-05-06 11:28 35.52441 140.51643 11802 ft 360 kts 197°
2026-05-06 11:28 35.50097 140.50540 12703 ft 363 kts 211°
2026-05-06 11:28 35.48026 140.48759 13704 ft 365 kts 226°
2026-05-06 11:28 35.46624 140.46190 14622 ft 366 kts 251°
2026-05-06 11:29 35.46300 140.43116 15654 ft 368 kts 275°
2026-05-06 11:29 35.47104 140.40147 16715 ft 373 kts 299°
2026-05-06 11:29 35.48897 140.37814 17730 ft 385 kts 322°
2026-05-06 11:29 35.51379 140.36472 18639 ft 396 kts 339°
2026-05-06 11:30 35.53921 140.35323 19032 ft 396 kts 329°
2026-05-06 11:30 35.56320 140.33614 19573 ft 400 kts 321°
2026-05-06 11:30 35.58756 140.31926 20024 ft 414 kts 335°
2026-05-06 11:30 35.61611 140.31085 20705 ft 428 kts 345°
2026-05-06 11:31 35.64572 140.30506 21491 ft 433 kts 344°
2026-05-06 11:31 35.67544 140.29781 22210 ft 437 kts 340°
2026-05-06 11:31 35.70516 140.28864 22870 ft 443 kts 338°
2026-05-06 11:31 35.73453 140.27722 23440 ft 438 kts 328°
2026-05-06 11:32 35.75925 140.25632 24007 ft 426 kts 308°
2026-05-06 11:32 35.77757 140.22847 24864 ft 412 kts 296°
2026-05-06 11:32 35.79007 140.19751 25778 ft 398 kts 283°
2026-05-06 11:32 35.79737 140.16527 26634 ft 394 kts 279°
2026-05-06 11:33 35.80394 140.13248 27387 ft 395 kts 278°
2026-05-06 11:33 35.81056 140.09952 28140 ft 397 kts 278°
2026-05-06 11:33 35.81742 140.06653 28943 ft 398 kts 279°
2026-05-06 11:33 35.82450 140.03352 29719 ft 400 kts 279°
2026-05-06 11:34 35.83168 140.00043 30436 ft 401 kts 279°
2026-05-06 11:34 35.83891 139.96712 30966 ft 403 kts 278°
2026-05-06 11:34 35.84614 139.93358 31379 ft 408 kts 278°
2026-05-06 11:34 35.85344 139.89973 31923 ft 407 kts 278°
2026-05-06 11:35 35.86068 139.86616 32654 ft 403 kts 278°
2026-05-06 11:35 35.86783 139.83303 33428 ft 398 kts 277°
2026-05-06 11:35 35.87487 139.80021 34135 ft 394 kts 277°
2026-05-06 11:35 35.88185 139.76763 34667 ft 392 kts 277°
2026-05-06 11:36 35.88880 139.73508 35123 ft 392 kts 277°
2026-05-06 11:36 35.89573 139.70259 35562 ft 392 kts 277°
2026-05-06 11:36 35.90267 139.67006 36012 ft 392 kts 277°
2026-05-06 11:36 35.90960 139.63757 36451 ft 391 kts 277°
2026-05-06 11:37 35.91633 139.60512 36873 ft 389 kts 276°
2026-05-06 11:37 35.92142 139.57252 37258 ft 386 kts 272°
2026-05-06 11:37 35.92543 139.53979 37642 ft 386 kts 272°
2026-05-06 11:37 35.92937 139.50705 38050 ft 385 kts 272°
2026-05-06 11:38 35.93330 139.47442 38474 ft 384 kts 272°
2026-05-06 11:38 35.93722 139.44187 38837 ft 384 kts 272°
2026-05-06 11:38 35.94116 139.40921 39097 ft 385 kts 272°
2026-05-06 11:38 35.94513 139.37639 39312 ft 387 kts 272°
2026-05-06 11:39 35.94911 139.34346 39555 ft 389 kts 272°
2026-05-06 11:39 35.95311 139.31040 39790 ft 390 kts 272°
2026-05-06 11:39 35.95711 139.27722 40020 ft 391 kts 273°
2026-05-06 11:40 35.96516 139.21017 40135 ft 397 kts 272°
2026-05-06 11:40 35.97325 139.14305 40161 ft 393 kts 272°
2026-05-06 11:41 35.98117 139.07663 40190 ft 390 kts 272°
2026-05-06 11:41 35.98900 139.01040 40177 ft 390 kts 272°
2026-05-06 11:42 35.99682 138.94420 40193 ft 390 kts 272°
2026-05-06 11:42 36.00382 138.87792 40198 ft 388 kts 269°
2026-05-06 11:43 36.00513 138.81188 40198 ft 387 kts 266°
2026-05-06 11:43 36.00591 138.74500 40185 ft 387 kts 266°
2026-05-06 11:44 36.00704 138.64587 40220 ft 386 kts 266°
2026-05-06 11:44 36.00783 138.57920 40195 ft 390 kts 266°
2026-05-06 11:45 36.00848 138.51216 40184 ft 390 kts 266°
2026-05-06 11:45 36.00880 138.44501 40188 ft 391 kts 266°
2026-05-06 11:46 36.00916 138.37775 40176 ft 392 kts 266°
2026-05-06 11:46 36.00951 138.31038 40174 ft 393 kts 265°
2026-05-06 11:47 36.00984 138.24275 40165 ft 394 kts 265°
2026-05-06 11:47 36.01017 138.17504 40185 ft 394 kts 265°
2026-05-06 11:48 36.01067 138.10729 40160 ft 394 kts 265°
2026-05-06 11:48 36.01117 138.04011 40176 ft 393 kts 265°
2026-05-06 11:49 36.01160 137.97229 40174 ft 392 kts 265°
2026-05-06 11:49 36.01198 137.90554 40173 ft 390 kts 265°
2026-05-06 11:50 36.01232 137.83848 40198 ft 391 kts 265°
2026-05-06 11:50 36.01261 137.77079 40174 ft 395 kts 265°
2026-05-06 11:51 36.01290 137.70293 40175 ft 394 kts 265°
2026-05-06 11:51 36.01307 137.63554 40173 ft 391 kts 265°
2026-05-06 11:52 36.01305 137.56860 40177 ft 389 kts 264°
2026-05-06 11:52 36.01302 137.50185 40174 ft 388 kts 265°
2026-05-06 11:53 36.01299 137.43535 40167 ft 387 kts 264°
2026-05-06 11:53 36.01294 137.36895 40177 ft 386 kts 264°
2026-05-06 11:54 36.01286 137.30252 40168 ft 387 kts 264°
2026-05-06 11:54 36.01274 137.23601 40164 ft 387 kts 264°
2026-05-06 11:55 36.01259 137.16937 40158 ft 389 kts 264°
2026-05-06 11:55 36.01239 137.10285 40158 ft 388 kts 264°
2026-05-06 11:56 36.01216 137.03616 40137 ft 389 kts 264°
2026-05-06 11:56 36.01189 136.96932 40131 ft 389 kts 264°
2026-05-06 11:57 36.01160 136.90266 40160 ft 388 kts 264°
2026-05-06 11:57 36.01125 136.83593 40156 ft 389 kts 263°
2026-05-06 11:58 36.01096 136.78033 40157 ft 390 kts 264°
2026-05-06 11:58 36.01053 136.71330 40148 ft 391 kts 264°
2026-05-06 11:59 36.01006 136.64607 40113 ft 391 kts 263°
2026-05-06 11:59 36.00959 136.57919 40141 ft 390 kts 264°
2026-05-06 12:00 36.00907 136.51214 40121 ft 391 kts 264°
2026-05-06 12:00 36.00852 136.44499 40127 ft 392 kts 264°
2026-05-06 12:01 36.00790 136.37765 40118 ft 393 kts 264°
2026-05-06 12:01 36.00728 136.31012 40111 ft 394 kts 264°
2026-05-06 12:02 36.00664 136.24235 40101 ft 395 kts 264°
2026-05-06 12:02 36.00594 136.17439 40102 ft 397 kts 264°
2026-05-06 12:03 36.00518 136.10617 40105 ft 398 kts 264°
2026-05-06 12:03 36.00443 136.03818 40098 ft 399 kts 264°
2026-05-06 12:04 36.00361 135.96934 40104 ft 402 kts 264°
2026-05-06 12:04 36.00273 135.90011 40101 ft 405 kts 265°
2026-05-06 12:05 36.00182 135.83046 40103 ft 407 kts 265°
2026-05-06 12:05 36.00087 135.76049 40097 ft 408 kts 265°
2026-05-06 12:06 35.99987 135.69019 40096 ft 410 kts 265°
2026-05-06 12:06 35.99882 135.61966 40098 ft 411 kts 265°
2026-05-06 12:07 35.99773 135.54893 40089 ft 413 kts 265°
2026-05-06 12:07 35.99660 135.47794 40086 ft 414 kts 265°